This is the latest recevied weather packets stored in our database for station/object DAX207-13. If no packets are shown the sender has not sent any weather packets the latest 1 day(s).
| Time | Temp. | Humidity | Pressure | Rain* | Wind** | Luminosity | Snow |
|---|---|---|---|---|---|---|---|
| 1778164824 | 8.33° C | 93% | 1018.3 hPa | 0 mm | - | 106 W/m² | - |
| 1778164224 | 8.33° C | 93% | 1018.4 hPa | 0 mm | - | 108 W/m² | - |
| 1778163624 | 7.78° C | 94% | 1018.3 hPa | 0 mm | - | 73 W/m² | - |
| 1778163024 | 8.33° C | 93% | 1018.3 hPa | 0 mm | - | 57 W/m² | - |
| 1778162424 | 8.33° C | 93% | 1018.3 hPa | 0 mm | - | 57 W/m² | - |
| 1778161824 | 8.33° C | 92% | 1018.1 hPa | 0 mm | - | 57 W/m² | - |
| 1778161224 | 8.33° C | 92% | 1018.2 hPa | 0 mm | - | 70 W/m² | - |
| 1778160624 | 8.33° C | 92% | 1018.2 hPa | 0 mm | - | 68 W/m² | - |
| 1778160024 | 8.33° C | 91% | 1018.1 hPa | 0 mm | - | 69 W/m² | - |
| 1778159424 | 8.33° C | 91% | 1018.1 hPa | 0 mm | - | 61 W/m² | - |
| 1778158824 | 8.33° C | 91% | 1018 hPa | 0 mm | - | 65 W/m² | - |
| 1778158224 | 8.33° C | 92% | 1017.7 hPa | 0 mm | - | 81 W/m² | - |
| 1778157624 | 8.33° C | 91% | 1017.6 hPa | 0 mm | - | 134 W/m² | - |
| 1778157024 | 8.33° C | 89% | 1017.8 hPa | 0 mm | - | 104 W/m² | - |
| 1778156424 | 8.33° C | 90% | 1017.6 hPa | 0 mm | - | 145 W/m² | - |
| 1778155824 | 8.33° C | 90% | 1017.5 hPa | 0 mm | - | 104 W/m² | - |
| 1778155224 | 8.33° C | 91% | 1017.4 hPa | 0 mm | - | 112 W/m² | - |
| 1778154624 | 8.33° C | 91% | 1017.3 hPa | 0 mm | - | 68 W/m² | - |
| 1778154024 | 8.33° C | 91% | 1017.3 hPa | 0 mm | - | 92 W/m² | - |
| 1778153424 | 8.33° C | 92% | 1017.3 hPa | 0 mm | - | 78 W/m² | - |
| 1778152824 | 7.78° C | 92% | 1017.3 hPa | 0 mm | - | 99 W/m² | - |
| 1778152224 | 7.78° C | 91% | 1017.4 hPa | 0 mm | - | 86 W/m² | - |
| 1778151624 | 8.33° C | 91% | 1017.2 hPa | 0 mm | - | 70 W/m² | - |
| 1778151024 | 8.33° C | 90% | 1017.2 hPa | 0 mm | - | 119 W/m² | - |
| 1778150424 | 7.78° C | 92% | 1017 hPa | 0 mm | - | 133 W/m² | - |
* Rain latest hour (hover to see other rain measurements)
** Current wind speed in m/s (hover to see current wind gust speed)